Voltar ao catálogo

COSMOS 397 DEB *

AtivoLEO
NORAD 5527·DEBRIS·🇷🇺 Russia

Lançado Feb 25, 1971 de Baikonur Cosmodrome

Loading…

Próximas Passagens (próximas 24 horas)

TLE

AtualizadoSource: Space-Track

Época: Sep 13, 2026, 19:45 UTC

1 05527U 71015BR  26256.82324414  .00002287  00000-0  11634-2 0  9998
2 05527  66.8685  51.4610 0074884 255.9653 103.3106 14.16162118802985

Acompanhe COSMOS 397 DEB * em tempo real com AllMySat

Download on the App Store